Startseite
Über Mich
AHP4
Galerie
Sehschlangen
Tourenbuch
Bookmarks
Elektronik
Bewertung
Geschichten
[Tagesmessung] [Jahreswerte] [Information]

Messwerte vom 05.05.2022

Die letzten Messwerte von 23:58:48 Uhr:
KategorieMesswert
Temperatur [°C]7
Luftdruck [mBar]1009
Sonneneinstrahlung0
Wind [km/h]0 aus Süd
Niederschlag [l/m²]0
rel.Luftfeucht.75.8%
CO2 [ppm]645

Diagramme
Messwerte vom 05.05.2022
Tagesaggregation
KategorieMinimumMaximumSchnittSumme
Temperatur [°C]52713.8479
Luftdruck [mBar]100210091004.8583
Sonneneinstrahlung247130.7438
Wind [km/h]17
rF [%]24.988.858.75
Niederschlag [l/m²]0
CO2 [ppm]403783580.9
Einordnung alsVegetationstag
Sommertag

Messungen an benachbarten Tagen: Zur Jahresaggregation 2022
Tabelle aller Messwerte
UhrzeitTemperatur [°C]Luftdruck [mBar]SonneWind [km/h]RichtungRegen [l/m²]rF [%]CO2 [ppm]
00:01:47 9 1002 0 0 SO 0 84.9 727
00:04:46 9 1002 0 0 SO 0 85.4 735
00:07:47 9 1003 0 0 SO 0 85.4 743
00:10:46 9 1002 0 0 SO 0 85.2 741
00:13:49 9 1002 0 0 SO 0 86 746
00:16:49 9 1002 0 0 SO 0 86.3 746
00:19:48 9 1002 0 0 SO 0 86.2 755
00:22:47 9 1002 0 0 SO 0 85.9 753
00:25:48 9 1002 0 0 SO 0 85.8 764
00:28:48 9 1002 0 0 SO 0 85.3 752
00:31:47 9 1002 0 0 O 0 85 764
00:34:46 9 1002 0 0 O 0 84.9 753
00:37:49 10 1002 0 0 W 0 84.8 759
00:40:47 10 1002 0 0 NW 0 84.8 766
00:43:49 10 1002 0 2 NW 0 83.7 769
00:46:48 10 1002 0 0 NW 0 83.5 776
00:49:47 10 1002 0 3 N 0 82.9 773
00:52:46 10 1002 0 1 SO 0 82.1 775
00:55:47 10 1002 0 6 0 81.3 770
00:58:47 10 1002 0 1 NW 0 80.5 770
01:01:48 10 1002 0 4 NW 0 79.3 768
01:04:47 11 1002 0 2 O 0 78 773
01:07:47 11 1002 0 0 O 0 76.7 776
01:10:46 11 1002 0 6 N 0 76.2 776
01:13:46 11 1002 0 1 N 0 75.4 783
01:16:45 11 1002 0 0 N 0 75.4 776
01:19:47 10 1002 0 5 N 0 75.6 771
01:22:46 10 1002 0 1 N 0 75.7 755
01:25:48 10 1002 0 2 NO 0 75.7 755
01:28:47 10 1002 0 5 NW 0 75.9 752
01:31:46 10 1002 0 1 N 0 75.9 736
01:34:47 10 1002 0 5 NW 0 75.8 717
01:37:49 10 1002 0 12 N 0 75.6 708
01:40:46 10 1002 0 7 O 0 75.4 714
01:43:45 10 1002 0 1 W 0 75.4 711
01:46:44 10 1002 0 2 N 0 75.3 712
01:49:46 10 1002 0 4 NW 0 75.3 709
01:52:46 10 1002 0 1 NW 0 75.3 717
01:55:46 10 1002 0 2 N 0 75.2 721
01:58:45 10 1002 0 1 O 0 74.9 719
02:01:47 10 1002 0 4 NW 0 74.7 714
02:04:45 10 1002 0 3 S 0 74.5 706
02:07:47 10 1002 0 6 SO 0 74.8 715
02:10:46 10 1002 0 2 NO 0 74.6 709
02:13:47 10 1002 0 0 NO 0 74.2 706
02:16:49 10 1002 0 4 N 0 73.7 699
02:19:46 10 1002 0 2 N 0 73.4 695
02:22:46 10 1002 0 8 O 0 73.1 691
02:25:46 10 1002 0 6 N 0 73 696
02:28:47 10 1002 0 3 N 0 72.8 697
02:31:48 10 1002 0 1 N 0 72.5 705
02:34:47 10 1002 0 7 NW 0 72.4 723
02:37:46 10 1002 0 6 N 0 72.4 735
02:40:48 10 1002 0 6 NW 0 72.5 738
02:43:50 10 1002 0 2 NO 0 72.7 730
02:46:47 10 1002 0 5 NW 0 72.9 718
02:49:47 10 1002 0 2 N 0 73 714
02:52:46 9 1002 0 5 N 0 73.1 709
02:55:48 9 1002 0 1 NO 0 73.5 702
02:58:46 9 1002 0 2 N 0 73.6 694
03:01:46 9 1002 0 0 S 0 73.6 694
03:04:46 9 1002 0 0 SO 0 73.7 703
03:07:46 9 1002 0 0 SO 0 73.6 708
03:10:48 9 1002 0 0 SO 0 74.2 708
03:13:48 8 1002 0 0 NW 0 74.7 699
03:16:45 8 1002 0 0 S 0 75.4 692
03:19:47 8 1002 0 1 S 0 76.1 690
03:22:45 8 1002 0 0 S 0 77.3 693
03:25:46 8 1002 0 0 S 0 77.8 700
03:28:46 8 1002 0 0 S 0 77.6 686
03:31:49 8 1003 0 0 S 0 77.8 686
03:34:47 8 1002 0 0 S 0 78.3 682
03:37:50 9 1002 0 0 NW 0 78.2 692
03:40:48 9 1002 0 0 NW 0 78.1 693
03:43:48 9 1002 0 0 NW 0 78 694
03:46:48 9 1002 0 0 NW 0 77.9 686
03:49:48 9 1002 0 0 NW 0 77.9 687
03:52:47 9 1002 0 0 SO 0 78.3 694
03:55:47 9 1002 0 0 SO 0 78.7 697
03:58:48 9 1002 0 0 SO 0 78.5 695
04:01:46 9 1002 0 0 W 0 78.6 691
04:04:49 9 1003 0 1 W 0 79.5 693
04:07:46 9 1002 0 1 W 0 79.5 686
04:10:49 9 1002 0 0 W 0 79.6 692
04:13:48 9 1002 0 1 NW 0 79.6 697
04:16:45 9 1002 0 0 O 0 79.7 720
04:19:47 9 1003 0 1 W 0 80.2 726
04:22:46 9 1002 0 2 W 0 80.7 715
04:25:48 9 1002 0 0 W 0 81.1 700
04:28:49 9 1003 0 1 W 0 81.2 697
04:31:48 9 1003 0 2 W 0 81.5 700
04:34:46 9 1002 0 0 S 0 81.2 698
04:37:47 9 1003 0 1 S 0 81.3 701
04:40:47 9 1003 0 0 S 0 81.3 700
04:43:45 9 1003 0 0 NW 0 81.4 703
04:46:50 9 1002 0 2 NW 0 82.6 712
04:49:47 9 1002 0 0 N 0 83.4 725
04:52:46 9 1002 0 0 N 0 82.8 729
04:55:46 9 1002 0 0 N 0 82.1 720
04:58:47 8 1003 0 0 S 0 81.9 708
05:01:49 8 1003 0 0 SW 0 82 712
05:04:48 8 1003 0 1 SO 0 82.3 718
05:07:49 8 1002 0 1 SW 0 82.6 720
05:10:44 8 1002 0 3 W 0 82.8 727
05:13:46 8 1003 4 0 SW 0 83.3 711
05:16:48 7 1002 6 0 SW 0 84.2 697
05:19:48 7 1002 9 0 SW 0 84.2 685
05:22:47 7 1003 14 0 SW 0 84.2 693
05:25:46 7 1003 20 2 W 0 84.1 691
05:28:46 7 1003 28 0 W 0 84.5 702
05:31:46 6 1004 37 1 W 0 84.6 699
05:34:48 6 1003 46 2 NW 0 84.8 700
05:37:46 6 1003 57 3 W 0 85.4 694
05:40:48 6 1003 69 2 W 0 86.5 700
05:43:47 6 1003 80 2 W 0 86.6 702
05:46:46 6 1003 90 3 W 0 86.5 718
05:49:48 6 1003 99 0 W 0 86.4 715
05:52:47 6 1002 107 0 SW 0 86.4 719
05:55:45 6 1004 115 0 S 0 86.4 711
05:58:49 5 1003 121 0 S 0 86.7 708
06:01:47 5 1004 127 0 S 0 86.7 702
06:04:47 5 1003 132 0 S 0 86.8 700
06:07:46 5 1004 137 0 S 0 87.3 697
06:10:46 5 1003 141 0 S 0 87.5 700
06:13:48 5 1003 145 0 S 0 87.7 696
06:16:51 5 1004 148 0 S 0 87.7 702
06:19:49 5 1003 152 0 SW 0 87.9 702
06:22:51 5 1003 155 0 SW 0 88.2 711
06:25:47 5 1003 157 0 SW 0 88.3 712
06:28:50 5 1003 159 0 SW 0 88.3 708
06:31:48 5 1004 161 0 SW 0 88.4 694
06:34:47 5 1004 164 0 SW 0 88.4 685
06:37:48 5 1003 166 0 NW 0 88.5 676
06:40:50 5 1003 167 0 S 0 88.8 678
06:43:47 5 1004 170 0 S 0 88.7 667
06:46:47 6 1003 173 0 S 0 88.2 671
06:49:48 6 1004 176 0 S 0 88.1 670
06:52:48 7 1004 176 0 S 0 87.9 672
06:55:48 8 1004 177 0 S 0 87.1 665
06:58:49 8 1004 178 1 S 0 83.9 689
07:01:48 9 1004 179 0 SO 0 81.7 718
07:04:48 9 1004 181 0 S 0 81 729
07:07:48 10 1004 182 0 S 0 79.1 725
07:10:47 11 1004 182 0 S 0 76.3 712
07:13:49 11 1004 183 0 S 0 74.5 721
07:16:45 12 1004 184 0 S 0 73.9 705
07:19:46 13 1004 185 0 S 0 73.1 704
07:22:50 13 1005 185 1 S 0 68.3 688
07:25:47 14 1004 184 0 S 0 67.9 690
07:28:50 14 1004 184 0 SO 0 65.5 687
07:31:49 13 1003 185 0 S 0 64.5 699
07:34:47 13 1005 186 1 S 0 64.8 700
07:37:47 14 1005 186 0 S 0 65.3 708
07:40:49 13 1004 187 0 S 0 62.8 708
07:43:47 12 1004 187 0 S 0 62.7 709
07:46:30 12 1004 187 0 S 0 55.7 720
07:49:47 10 1005 187 0 SW 0 67.2 725
07:52:49 9 1004 187 2 SO 0 70.3 723
07:55:48 9 1004 187 0 SW 0 73 718
07:58:47 9 1004 187 0 S 0 73 717
08:01:47 9 1004 187 0 S 0 74 709
08:04:47 9 1004 188 0 SW 0 74.6 706
08:07:49 9 1004 188 0 NW 0 75.6 708
08:10:46 9 1004 188 2 S 0 77.1 702
08:13:49 9 1004 188 0 NW 0 77.3 702
08:16:50 9 1005 188 1 SW 0 78.2 697
08:19:49 9 1005 188 0 N 0 78.1 688
08:22:46 9 1004 188 1 SW 0 78.1 697
08:25:50 9 1005 189 0 S 0 78.4 692
08:28:50 9 1006 189 4 W 0 78.4 688
08:31:48 9 1005 189 2 W 0 78.6 682
08:34:46 9 1005 189 1 N 0 77.9 674
08:37:49 9 1004 189 2 NW 0 78.1 668
08:40:48 9 1006 189 0 S 0 78.3 670
08:43:46 10 1005 189 3 W 0 77.3 667
08:46:46 10 1005 189 0 W 0 77.1 664
08:49:49 10 1005 189 4 NW 0 77.2 653
08:52:49 10 1006 190 2 SW 0 77.2 653
08:55:51 10 1005 190 2 W 0 77 659
08:58:47 10 1005 190 4 W 0 76.9 659
09:01:51 10 1006 190 1 SW 0 76.3 650
09:04:49 10 1006 191 1 SW 0 75.3 644
09:07:49 10 1005 191 0 SW 0 75 647
09:10:47 10 1005 191 6 N 0 74.2 647
09:13:50 11 1005 192 9 NW 0 73.5 638
09:16:47 11 1005 192 1 SO 0 73.3 639
09:19:49 11 1005 192 2 NW 0 73.1 638
09:22:49 11 1005 192 3 SW 0 71.9 632
09:25:47 11 1005 193 3 W 0 72.6 629
09:28:47 11 1005 194 2 W 0 71.6 625
09:31:46 11 1005 195 4 W 0 71.3 626
09:34:50 11 1006 196 1 W 0 70.4 621
09:37:48 11 1005 197 2 W 0 70.2 618
09:40:49 11 1005 198 2 SO 0 70.6 619
09:43:46 12 1006 199 5 W 0 70.3 617
09:46:51 12 1005 199 1 SW 0 69.6 618
09:49:47 12 1006 200 4 S 0 67.1 612
09:52:46 12 1005 200 1 0 65.9 612
09:55:48 12 1006 201 2 W 0 66.2 611
09:58:48 12 1005 201 6 NO 0 67 605
10:01:50 12 1005 201 0 W 0 65.2 603
10:04:50 12 1005 201 6 NW 0 65.8 606
10:07:48 12 1006 201 2 N 0 66.9 601
10:10:50 12 1005 201 4 W 0 65.4 595
10:13:50 12 1005 201 6 NW 0 65.1 594
10:16:46 12 1006 201 5 W 0 64.4 592
10:19:47 12 1006 201 2 S 0 65.1 595
10:22:49 13 1005 201 9 NW 0 64.2 586
10:25:46 12 1006 201 3 N 0 64.3 585
10:28:49 13 1005 202 5 S 0 63.1 572
10:31:49 13 1006 202 0 W 0 63.9 582
10:34:49 13 1005 202 6 W 0 64.2 584
10:37:49 13 1005 202 4 NW 0 63.4 583
10:40:49 13 1006 202 3 W 0 61.9 580
10:43:48 13 1006 202 6 W 0 60.4 579
10:46:49 13 1006 202 2 SW 0 61.4 578
10:49:51 13 1006 202 4 SO 0 59.8 583
10:52:48 13 1006 202 0 S 0 59.4 579
10:55:48 14 1006 202 9 W 0 58.8 571
10:58:46 14 1005 202 1 O 0 58.9 565
11:01:47 14 1005 202 7 W 0 59.6 568
11:04:49 14 1006 203 8 NW 0 58.7 564
11:07:47 14 1006 203 2 N 0 52.7 563
11:10:31 13 1006 203 1 W 0 45.7 562
11:13:47 14 1006 203 1 SW 0 56.6 560
11:16:48 14 1005 203 5 NW 0 55.2 562
11:19:48 14 1006 203 2 W 0 54.8 553
11:22:47 15 1006 203 0 NO 0 56.3 550
11:25:47 15 1006 203 7 SW 0 50.1 550
11:28:49 15 1006 203 6 NW 0 50.9 547
11:31:48 14 1006 203 3 NW 0 52.5 550
11:34:48 15 1006 204 0 NO 0 52.1 554
11:37:52 15 1006 205 3 NW 0 53.2 553
11:40:48 15 1006 206 0 S 0 52.7 545
11:43:48 16 1006 207 4 W 0 49.2 532
11:46:48 16 1006 208 1 S 0 46.5 539
11:49:49 16 1006 208 4 NW 0 45.2 541
11:52:48 16 1006 208 2 W 0 47.6 541
11:55:47 16 1006 208 1 SW 0 47.5 538
11:58:49 17 1006 209 3 NO 0 46.2 533
12:01:47 17 1006 207 12 N 0 43.3 527
12:04:33 15 1006 208 7 NW 0 40 533
12:07:49 17 1006 208 1 S 0 42.7 538
12:10:47 18 1006 208 3 SO 0 44.5 530
12:13:49 18 1006 210 6 S 0 38.4 535
12:16:31 16 1006 210 3 N 0 40 527
12:19:51 19 1006 213 3 SW 0 39.8 530
12:22:50 19 1006 213 1 SW 0 39.9 530
12:25:50 19 1006 211 8 NW 0 39.7 535
12:28:48 18 1006 211 3 SW 0 37.9 531
12:31:47 19 1006 211 1 N 0 40.1 535
12:34:50 20 1006 210 3 NW 0 38.9 527
12:37:50 20 1006 210 3 NW 0 40 524
12:40:51 20 1006 210 3 W 0 38.3 521
12:43:47 21 1006 211 6 W 0 36.8 524
12:46:48 21 1006 211 2 S 0 36.9 524
12:49:48 22 1006 212 3 NW 0 36.7 524
12:52:49 22 1006 212 6 W 0 34.4 524
12:55:46 21 1006 212 1 S 0 34.1 515
12:58:48 22 1006 213 3 SW 0 31.3 518
13:01:49 22 1006 214 3 SW 0 34.4 521
13:04:49 22 1006 214 3 SW 0 34.1 512
13:07:46 21 1005 215 6 W 0 33.5 507
13:10:49 21 1006 216 7 NW 0 32.5 500
13:13:31 21 1006 217 1 NW 0 40 501
13:16:45 21 1006 218 1 S 0 35.4 501
13:19:49 22 1006 218 1 SW 0 36.4 495
13:22:51 23 1006 218 6 SO 0 31.9 503
13:25:48 22 1006 219 2 W 0 32 498
13:28:47 22 1006 221 1 W 0 33.8 497
13:31:51 22 1006 222 5 SO 0 30.9 495
13:34:33 21 1005 222 4 NW 0 40 497
13:37:35 21 1006 223 4 W 0 40 503
13:40:50 21 1006 223 0 SW 0 38 501
13:43:47 22 1006 226 1 S 0 35.1 492
13:46:49 23 1006 226 1 SO 0 34.1 495
13:49:49 23 1006 227 3 S 0 33.9 491
13:52:50 23 1006 229 5 O 0 34.6 481
13:55:46 23 1006 230 9 W 0 34.7 486
13:58:49 22 1006 230 4 NW 0 32.5 485
14:01:48 22 1006 231 0 O 0 35.9 487
14:04:49 22 1005 231 1 SW 0 36 487
14:07:49 23 1006 232 4 SW 0 35.3 493
14:10:47 23 1006 233 7 S 0 34.2 485
14:13:49 22 1005 233 6 NW 0 31.2 483
14:16:48 22 1006 235 6 NW 0 31.2 488
14:19:48 22 1006 237 2 SW 0 32.8 480
14:22:50 23 1006 239 10 NW 0 34.9 491
14:25:49 22 1006 240 12 N 0 30 483
14:28:48 21 1006 241 2 W 0 33.6 483
14:31:48 21 1006 241 2 S 0 36.7 480
14:34:51 22 1006 242 5 W 0 36.5 483
14:37:49 22 1006 242 3 N 0 36 477
14:40:47 20 1006 241 4 NW 0 33.7 474
14:43:48 20 1006 242 17 S 0 34.2 468
14:46:46 20 1006 243 15 NW 0 35.6 462
14:49:48 20 1006 243 10 N 0 35.4 459
14:52:50 20 1006 244 0 SO 0 35.2 457
14:55:47 22 1006 244 2 SW 0 35.9 456
14:58:48 23 1006 244 3 SO 0 34.7 456
15:01:48 23 1006 244 2 SW 0 32.7 459
15:04:48 23 1006 245 5 O 0 30.5 486
15:07:49 22 1006 244 0 NW 0 31.1 483
15:10:48 22 1006 245 2 N 0 32.8 474
15:13:48 23 1005 245 1 NO 0 34.4 477
15:16:50 23 1006 245 4 NW 0 32 477
15:19:49 22 1006 245 3 SW 0 31.7 484
15:22:48 21 1006 245 8 N 0 30.5 483
15:25:51 20 1006 245 12 NW 0 30.3 483
15:28:47 20 1006 245 7 O 0 31.2 480
15:31:50 20 1006 245 13 NW 0 32.3 472
15:34:49 20 1006 246 16 N 0 33 468
15:37:49 20 1006 246 3 NO 0 32.3 474
15:40:50 21 1006 246 2 W 0 33.8 466
15:43:48 22 1006 246 1 S 0 32.4 462
15:46:50 22 1006 246 5 NW 0 30.1 460
15:49:49 22 1005 246 3 NW 0 30.9 463
15:52:46 21 1005 246 2 N 0 31.3 463
15:55:49 22 1006 246 6 W 0 32.9 462
15:58:48 23 1006 245 3 W 0 31.3 462
16:01:47 23 1006 246 1 W 0 31.7 468
16:04:32 21 1006 247 5 NW 0 40 465
16:07:49 23 1006 246 8 N 0 28.7 463
16:10:50 22 1006 246 8 NW 0 29.4 462
16:13:30 21 1006 237 4 NO 0 40 451
16:16:49 22 1006 247 9 W 0 32.7 442
16:19:51 23 1005 247 0 NW 0 33.1 442
16:22:49 24 1005 247 2 S 0 31.2 454
16:25:47 25 1005 247 2 SW 0 31.1 465
16:28:49 26 1006 246 7 SW 0 28.3 462
16:31:49 26 1006 245 5 NW 0 28.2 456
16:34:52 25 1006 245 5 SW 0 28.3 459
16:37:47 24 1005 245 2 S 0 28.5 454
16:40:48 24 1006 246 2 N 0 29 456
16:43:49 24 1006 245 7 NW 0 29.5 457
16:46:50 24 1006 246 2 NW 0 29 454
16:49:48 24 1006 246 0 SW 0 30.2 453
16:52:49 24 1006 246 0 NW 0 31.1 453
16:55:49 24 1005 245 5 NW 0 30.9 456
16:58:46 24 1005 245 2 N 0 30.6 448
17:01:51 24 1006 247 0 NW 0 29.1 451
17:04:50 25 1006 247 6 W 0 29.2 448
17:07:49 25 1006 247 2 W 0 29 451
17:10:50 25 1006 247 2 N 0 27.9 454
17:13:49 24 1006 247 2 NO 0 27.6 462
17:16:47 25 1006 247 3 W 0 26.5 460
17:19:51 25 1006 247 6 NW 0 27.4 460
17:22:47 25 1006 215 7 N 0 26.1 444
17:25:50 25 1006 214 6 NW 0 26.5 403
17:28:47 26 1006 214 5 W 0 27.4 405
17:31:47 26 1005 247 7 W 0 27.3 404
17:34:48 27 1006 247 1 W 0 27.3 407
17:37:47 27 1006 247 3 S 0 27.3 407
17:40:47 27 1006 247 1 S 0 25.6 403
17:43:51 27 1006 234 2 NW 0 24.9 406
17:46:47 25 1005 235 2 W 0 25.4 404
17:49:49 24 1005 245 1 S 0 27.9 404
17:52:51 24 1006 247 0 W 0 27.8 406
17:55:49 24 1006 235 3 NW 0 27.5 404
17:58:48 23 1006 232 1 NW 0 27.7 410
18:01:48 21 1006 228 5 O 0 28.7 410
18:04:48 20 1006 246 3 O 0 31.5 410
18:07:48 20 1006 226 2 NO 0 31.6 406
18:10:50 19 1006 219 0 NO 0 32.8 404
18:13:49 19 1005 216 6 N 0 34.3 404
18:16:49 19 1005 215 5 NW 0 34.6 407
18:19:49 18 1005 216 2 NW 0 34.9 407
18:22:50 18 1006 216 5 NW 0 35.7 407
18:25:50 18 1005 218 3 NO 0 36.3 404
18:28:48 18 1005 225 9 NW 0 36.5 409
18:31:49 19 1006 244 9 NW 0 37.2 415
18:34:49 19 1005 243 2 NW 0 36.6 418
18:37:47 19 1005 236 5 NO 0 36.7 415
18:40:49 18 1006 231 2 NW 0 36.7 415
18:43:48 18 1006 224 4 NW 0 37.1 413
18:46:48 18 1006 220 1 NW 0 36.9 412
18:49:49 18 1006 218 4 NW 0 38.2 416
18:52:49 17 1005 218 3 N 0 38.1 424
18:55:48 17 1006 220 5 NW 0 38.7 416
18:58:47 17 1006 221 4 N 0 39.7 413
19:01:49 17 1006 223 2 NO 0 39.9 413
19:04:49 17 1006 226 0 NO 0 40.2 416
19:07:48 17 1006 225 5 NW 0 40.2 413
19:10:46 17 1005 222 2 W 0 40.5 418
19:13:49 17 1006 219 3 W 0 40.8 418
19:16:48 18 1006 215 2 N 0 41.1 421
19:19:49 18 1006 212 3 N 0 40.9 418
19:22:47 18 1005 221 14 W 0 41.6 416
19:25:46 17 1006 220 3 W 0 41.7 413
19:28:45 17 1006 198 4 N 0 41.2 415
19:31:49 17 1006 190 6 NO 0 40.2 421
19:34:48 17 1006 184 2 N 0 40.7 418
19:37:48 17 1006 182 8 W 0 40.9 424
19:40:49 17 1006 182 0 N 0 40.9 424
19:43:47 16 1006 182 0 O 0 41.3 422
19:46:45 16 1006 184 1 0 41.5 416
19:49:47 16 1006 188 2 NO 0 41.7 416
19:52:50 16 1006 189 1 N 0 42.3 427
19:55:47 16 1006 191 3 N 0 42.4 427
19:58:51 16 1006 194 6 NW 0 42.6 424
20:01:51 16 1006 194 4 NO 0 42.8 422
20:04:49 16 1006 193 5 NW 0 42.8 415
20:07:47 16 1006 189 6 0 42.7 421
20:10:47 16 1006 182 4 NW 0 42.5 413
20:13:47 16 1006 176 4 N 0 43.4 410
20:16:50 16 1006 129 7 NW 0 43.9 406
20:19:48 15 1006 123 1 NW 0 44.2 407
20:22:47 15 1006 118 1 O 0 44.6 404
20:25:47 15 1006 112 1 N 0 44.9 407
20:28:47 15 1006 147 2 NO 0 45.4 404
20:31:49 15 1006 139 0 NO 0 45.7 404
20:34:48 15 1006 130 4 NW 0 46.1 406
20:37:46 15 1006 121 1 0 46.5 407
20:40:46 15 1006 112 1 N 0 47 404
20:43:49 14 1006 102 2 NW 0 47.3 407
20:46:49 14 1006 91 0 N 0 48.1 407
20:49:48 14 1006 81 4 NW 0 48.9 407
20:52:46 14 1006 69 2 N 0 49 416
20:55:49 14 1006 58 2 NW 0 48.9 416
20:58:48 14 1006 47 3 NW 0 49.2 424
21:01:45 14 1006 36 0 N 0 49.3 433
21:04:47 14 1006 27 0 NO 0 49.8 442
21:07:46 14 1006 19 1 N 0 50.2 445
21:10:47 14 1007 12 2 W 0 51.3 446
21:13:47 14 1006 8 0 NO 0 51.6 450
21:16:49 13 1006 5 0 NO 0 51.7 456
21:19:46 13 1006 4 0 NO 0 52 466
21:22:47 13 1007 3 0 NO 0 53.5 472
21:25:46 13 1006 0 0 N 0 54.6 483
21:28:47 12 1006 0 1 N 0 54.9 486
21:31:49 12 1006 0 0 N 0 56.9 494
21:34:48 12 1006 0 0 SO 0 57.2 500
21:37:47 12 1007 0 1 NO 0 57.5 500
21:40:50 12 1006 0 0 NW 0 58.2 509
21:43:47 12 1007 0 1 O 0 58.2 518
21:46:46 12 1007 0 0 NO 0 58.5 527
21:49:47 12 1007 0 0 O 0 58.5 529
21:52:47 12 1006 0 1 NO 0 58.6 535
21:55:49 11 1007 0 0 SO 0 58.8 536
21:58:48 11 1006 0 0 SW 0 59.2 541
22:01:46 11 1006 0 0 O 0 59.9 542
22:04:44 11 1006 0 0 O 0 60.4 541
22:07:47 11 1007 0 0 O 0 60.7 550
22:10:46 11 1007 0 0 O 0 60.9 559
22:13:51 10 1006 0 0 O 0 61.2 565
22:16:49 10 1007 0 0 NO 0 62.3 567
22:19:47 10 1007 0 0 NO 0 62.9 569
22:22:47 10 1008 0 0 NO 0 62.4 579
22:25:46 10 1008 0 0 S 0 62.3 579
22:28:45 10 1008 0 0 S 0 63.7 580
22:31:45 10 1007 0 0 S 0 64.4 580
22:34:46 10 1007 0 0 S 0 64.7 588
22:37:46 9 1008 0 0 S 0 64.6 589
22:40:47 9 1007 0 0 S 0 66 597
22:43:46 9 1007 0 0 S 0 66.8 600
22:46:49 9 1007 0 0 S 0 66.2 604
22:49:49 9 1008 0 0 S 0 66.8 612
22:52:45 9 1008 0 0 S 0 67.2 614
22:55:49 9 1007 0 0 S 0 69.3 621
22:58:44 9 1007 0 0 S 0 70 615
23:01:47 9 1008 0 0 S 0 70.5 622
23:04:48 9 1007 0 0 S 0 70.7 629
23:07:48 8 1008 0 0 S 0 70.6 633
23:10:47 8 1007 0 0 S 0 70.4 565
23:13:46 8 1008 0 0 S 0 70.7 504
23:16:46 8 1008 0 0 S 0 70.4 530
23:19:48 8 1008 0 0 S 0 71.1 570
23:22:46 8 1007 0 0 S 0 71.4 603
23:25:48 8 1008 0 0 S 0 72.1 612
23:28:46 8 1008 0 0 S 0 72.9 618
23:31:45 8 1008 0 0 S 0 72.5 626
23:34:46 8 1007 0 0 S 0 73.7 637
23:37:46 8 1007 0 0 S 0 74.2 643
23:40:45 7 1008 0 0 S 0 74.3 644
23:43:44 7 1008 0 0 S 0 74 647
23:46:47 7 1008 0 0 S 0 74.5 651
23:49:45 7 1009 0 0 S 0 75.8 647
23:52:46 7 1008 0 0 S 0 76.3 644
23:55:45 7 1008 0 0 S 0 76.3 643
23:58:48 7 1009 0 0 S 0 75.8 645

Letzte Änderung : 04-Jan-2022
Copyright Jens Köhler, Wolfsburg, Obere Dorfstraße 10d